Voltar ao catálogo

SPACEMOBILE-009

AtivoComunicaçõesVLEO
NORAD 69590·PAYLOAD·🇺🇸 United States

Lançado Jun 17, 2026 de Cape Canaveral Space Force Station

Loading…

Próximas Passagens (próximas 24 horas)

TLE

AtualizadoSource: CelesTrak SupGP

Época: Sep 14, 2026, 11:03 UTC

1 69590C 26139B   26257.46091435  .00003550  00000+0  19908-3 0  2573
2 69590  52.9925 217.2708 0002979 218.3133 123.5006 15.12866484    11

Acompanhe SPACEMOBILE-009 em tempo real com AllMySat

Download on the App Store